CZ-6A DEB

Satellite information

Favourite Embed

Satellite Type and Status

DEBRISIN ORBIT

Key statistics

Satellite CZ-6A DEB at a glance.

Uptime

494

Days in orbit

Revolutions

≈ 14.2

Per day

Orbit

LEO

Low Earth Orbit

Inclination

89.0

Latest

Satellite identification and parameters

Extended collection of information and parameters for CZ-6A DEB.

Object identification

Identified? True

Debris? True

Object name: CZ-6A DEB

International designator: 2024-140RZ

Object number (NORAD): 61264

Object ID (CCSDS): 61264

Country: PEOPLES REPUBLIC OF CHINA (PRC)

Current information (Y/N): Y

RCS size: SMALL

Orbital parameters

Period: 101.12 minutes

Inclination: 89.0091 deg

SMA: 7189.831 km

Apoapsis: 843.652 km

Periapsis: 779.74 km

RAAN: 296.1146 deg

Eccentricy: 0.00444464

Argument of periapsis: 53.7217 deg

Mean anomaly: 306.8069 deg

Mean motion: 14.24048287 rev/day

Mean motion (dot): 0.00005734 rev/day2

B* drag term: 0.002464384 1/REarth

Two-line elements (TLE)

Creation date: Dec. 12, 2025, 10:14 a.m.

Reference frame: TEME

Reference center: EARTH

Epoch: Dec. 12, 2025, 6:37 a.m. UTC

TLE line 0: 0 CZ-6A DEB

TLE line 1: 1 61264U 24140RZ 25346.27626230 .00005734 00000-0 24644-2 0 9999

TLE line 2: 2 61264 89.0091 296.1146 0044446 53.7217 306.8069 14.24048287 67199

Live tracking on map

Real-time ground track for satellite CZ-6A DEB.

In-orbit conjunctions

A list of the most updated potential collisions computed for object CZ-6A DEB.

Target Orbit TCA Probability of collision Miss distance Type
THORAD AGENA D DEB SSO 2025-08-01 18:11:45 0.0002598011 130.0 (m) DEBRIS
PEGASUS R/B LEO 2025-06-08 02:42:05 0.0001374611 526.0 (m) ROCKET BODY
FENGYUN 1C DEB SSO 2025-02-27 16:30:32 0.0001414759 747.0 (m) DEBRIS
FENGYUN 1C DEB SSO 2025-01-30 01:53:19 0.0001596472 715.0 (m) DEBRIS
COSMOS 2251 DEB LEO 2025-01-09 20:46:24 0.0001363852 487.0 (m) DEBRIS

Associated space launch

18 Low Earth Orbit communication satellites with Ku, Q and V band payloads for the G60 constellation operated by Shanghai Spacecom Satellite Technology (SSST) with funding backed by the Shanghai local government. Initial constellation will consist of 1296 satellites by 2027 with long term plans to expand it to 12000 satellites.

CZ-6A DEB was lifted into orbit during the mission ‘Long March 6A | G60 Polar Group 01’, on board a Long March 6A space rocket.

The launch took place on Aug. 6, 2024, 6:42 a.m. from Launch Complex 9A.

For more information about the launch, click the button.

Launch to space Long March 6A | G60 Polar Group 01
Long March 6A | G60 Polar Group 01

Agency: N/A

Status: Launch Successful

Launch date: Aug. 6, 2024, 6:42 a.m. UTC

Rocket: Long March 6A

Launch pad: Launch Complex 9A

Location: Taiyuan Satellite Launch Center, People's Republic of China

...

Latest news about this satellite

News about space launch
Brightness of first Chinese broadband constellation satellites alarms astronomers

The first satellites of a Chinese broadband constellation are significantly brighter than those of Western systems, posing a new challenge for astronomers.

News about space launch
Chinese rocket stage breaks up into cloud of more than 700 pieces of space debris

HELSINKI — A Chinese Long March 6A rocket’s upper stage has fragmented into a cloud of over 700 pieces of space debris, adding to concerns about long-term orbital safety. China […]

News about space launch
China's Thousand Sails Megaconstellation Kicks Off with Dangerous Debris Field

China's Thousand Sails Megaconstellation Kicks Off with Dangerous Debris Field


Newsletter sign-up

Weekly statistics, charts and insights to help you stay on top of the space industry.